Regional Weather Roundup
Issued by NWS Charleston, WV

Home | Current Version | Previous Version | Text Only | Print | Product List | Glossary Off
Versions: 1 2 3 4 5 6 7 8 9 10 11 12 13 14 15 16 17 18 19 20 21 22 23 24 25 26 27 28 29 30 31 32 33 34 35 36 37 38 39 40 41 42 43 44 45 46 47 48 49 50

000
ASUS41 KRLX 092010
RWRRLX
West Virginia Regional Weather Roundup
National Weather Service Charleston WV
300 PM EST TUE FEB 09 2016

Note: "fair" indicates few or no clouds below 12,000 feet with no
significant weather and/or obstructions to visibility.

WVZ003-092100-
Northern Panhandle of West Virginia

CITY           SKY/WX    TMP DP  RH WIND       PRES   REMARKS
WHEELING       FLURRIES  27  20  75 SW12      29.60R
$$

WVZ009-092100-
Northwest West Virginia

CITY           SKY/WX    TMP DP  RH WIND       PRES   REMARKS
PARKERSBURG    LGT SNOW  24  21  88 SW9       29.72R VSB 1
$$

WVZ006-092100-
Western West Virginia

CITY           SKY/WX    TMP DP  RH WIND       PRES   REMARKS
HUNTINGTON     LGT SNOW  25  18  74 W14       29.76R
$$

WVZ015-092100-
West Central West Virginia

CITY           SKY/WX    TMP DP  RH WIND       PRES   REMARKS
CHARLESTON     LGT SNOW  24  17  74 W9G18     29.73R
$$

WVZ022-031-092100-
North Central West Virginia

CITY           SKY/WX    TMP DP  RH WIND       PRES   REMARKS
CLARKSBURG     LGT SNOW  24  19  81 W12       29.65R
MORGANTOWN     LGT SNOW  24  19  81 SW9       29.63R VSB 1
$$

WVZ025-035-042-045-092100-
Southern West Virginia

CITY           SKY/WX    TMP DP  RH WIND       PRES   REMARKS
BECKLEY        LGT SNOW  19  12  74 W14G20    29.62R WCI   6
LOGAN          FLURRIES  21  14  73 W7G14     29.70R
BLUEFIELD      FLURRIES  18  10  71 W7        29.60R WCI   9
LEWISBURG      CLOUDY    27  18  69 W8        29.60R
$$

WVZ047-092100-
Northern Mountains of West Virginia

CITY           SKY/WX    TMP DP  RH WIND       PRES   REMARKS
ELKINS         CLOUDY    23  13  65 SW10      29.60R
$$

WVZ052-092100-
Eastern Panhandle of West Virginia

CITY           SKY/WX    TMP DP  RH WIND       PRES   REMARKS
MARTINSBURG    CLOUDY    34  25  69 W10       29.56R
PETERSBURG       N/A     36  17  46 NW8       29.58S
$$



USA.gov is the U.S. government's official web portal to all federal, state and local government web resources and services.